パンスターズ彗星

480P/PanSTARRS (2013)

English version
Home page
Updated on February 21, 2024

---------------------------------------------------------------------

・ プロフィール

符号 480P/2014 A3
発見日 2014年1月9日
発見光度 21.1等
発見者 Pan-STARRS 1 telescope (Haleakala)

・ 写真集

・ 軌道要素

                    Epoch = 2013 Apr. 18.0 TT
     T = 2013 Apr. 21.96896 TT        Peri. = 213.59639
     e = 0.2436019                    Node  = 230.76944 2000.0
     q = 3.5494006 AU                 Incl. =  13.69921
       a =  4.6925035 AU   n = 0.09696102   P =  10.16 years

・ 光度変化

        m1 = 12.0 + 5 logΔ + 10.0 log r

---------------------------------------------------------------------

軌道要素は、CBET 5342に掲載されたものです。
光度グラフはComet for Windowsで作成したものです。

---------------------------------------------------------------------

Copyright(C) Seiichi Yoshida (comet@aerith.net). All rights reserved.